Location: Winnipauk Village
(41.1295°N, 73.4171°W)
Time: 13:49:35
(UTC+00:00)

X-37B - Pass Details

Date: 08 August 2021
Orbit: 381 x 393 km, 45.0° (Epoch: 29 August)

Event Time Altitude Azimuth Distance (km) Brightness Sun altitude
Exits shadow 07:46:34 38° 341° (NNW) 600 1.7 -21.0°
Maximum altitude 07:46:49 39° 355° (N) 589 1.8 -20.9°
Drops below altitude 10° 07:49:48 10° 67° (ENE) 1,397 4.4 -20.5°
Sets 07:51:57 0° 75° (ENE) 2,251 5.4 -20.3°
